Other Public Products
Issued by NWS Grand Forks, ND

Home | Current Version | Previous Version | Graphics & Text | Print | Product List | Glossary On
Versions: 1 2 3 4 5 6 7 8 9 10 11 12 13 14 15 16 17 18 19 20 21 22 23 24 25 26 27 28 29 30 31 32 33 34 35 36 37 38 39 40 41 42 43 44 45 46 47 48 49 50
000
FPUS83 KFGF 201631
OPUFGF
PRAIRIE TO PINES WEATHER ROUNDUP
NATIONAL WEATHER SERVICE EASTERN NORTH DAKOTA/GRAND FORKS ND
1100 AM CDT MON OCT 20 2014

 **SATELLITE DATA USED TO AUGMENT SKY COVER AT AUTOMATED STATIONS**
 *****  WEATHER ACROSS EASTERN NORTH DAKOTA  *****

CITY           SKY/WX    TMP DP  RH WIND       PRES   REMARKS
GRAND FORKS    SUNNY     48  41  76 N5        30.09R
GRAND FORKS AF SUNNY     48  44  85 NE5       30.09R
GRAND CITY NWS   N/A     50 N/A N/A N2          N/A
BUXTON           N/A     51  44  77 N3          N/A
DEVILS LAKE    SUNNY     52  39  62 SE9       30.05F
FARGO          SUNNY     51  41  68 N5        30.07S
WAHPETON ARPT  SUNNY     52  37  58 NW6       30.08S
$$

 *****  WEATHER ACROSS CENTRAL AND WESTERN NORTH DAKOTA  *****

CITY           SKY/WX    TMP DP  RH WIND       PRES   REMARKS
JAMESTOWN      SUNNY     51  39  63 CALM      30.07S
BISMARCK       SUNNY     50  40  68 SE3       30.07F
MINOT          SUNNY     59  40  49 SE7       30.00F
MINOT AFB      SUNNY     55  43  64 SE7       30.00S
GARRISON         N/A     54  41  61 S6        30.02F
WILLISTON      SUNNY     57  40  52 S6        29.95F
DICKINSON      SUNNY     59  41  51 S18       29.98F
HETTINGER      SUNNY     58  39  49 SE14      30.03F
$$

 *****  OTHER OBSERVATIONS NORTHEAST NORTH DAKOTA  *****

CITY           SKY/WX    TMP DP  RH WIND       PRES   REMARKS
WALHALLA         N/A     41  41 100 CALM      30.10R
LANGDON        FAIR      54  41  62 S3        30.06F
CAVALIER       PTSUNNY   45  41  87 N3        30.09S
GRAFTON        FAIR      46  41  81 N5        30.09S
CANDO          FAIR      52  43  71 SE9       30.06F
FORT TOTTEN      N/A     54  45  72 SE5       29.95
ROLLA          FAIR      54  41  62 S10       30.05F
RUGBY          FAIR      54  45  71 SE6       30.04S
 ***** THE ABOVE OBSERVATIONS ARE NON NWS ARE NOT QUALITY
        CONTROLLED AND MAY MIS-REPORT RAIN FOR SNOW...
$$

 *****  OTHER OBSERVATIONS SOUTHEAST NORTH DAKOTA *****

CITY           SKY/WX    TMP DP  RH WIND       PRES   REMARKS
COOPERSTOWN    NOT AVBL
VALLEY CITY    FAIR      50  45  81 CALM      30.08R
OAKES            N/A     54  43  66 NE3       30.08F
GWINNER        SUNNY     55  41  58 CALM      30.09S
SHEYENNE NWR     N/A     52  41  67 CALM      29.95S
BUFFALO          N/A     56  41  57 E2          N/A
WYNDMERE         N/A     52  43  71 W3          N/A
 ***** THE ABOVE OBSERVATIONS ARE NON NWS ARE NOT QUALITY
       CONTROLLED AND MAY MIS-REPORT RAIN FOR SNOW...
$$

  *****  WEATHER ACROSS NORTHERN MINNESOTA  *****

CITY           SKY/WX    TMP DP  RH WIND       PRES   REMARKS
FLAG ISLAND    CLOUDY    45  36  70 N9        30.06R
WARROAD        CLOUDY    45  39  81 N6        30.08R
ROSEAU         CLOUDY    45  37  76 N8        30.08S
HALLOCK        CLOUDY    43  39  87 NE5       30.08S
THF RVR FALLS  CLOUDY    43  37  81 N6        30.08S
HALSTAD          N/A     53  41  63 N5          N/A
FOSSTON        MOSUNNY   48  39  71 N6        30.08R
BAUDETTE       CLOUDY    46  39  76 N8        30.05R
WASKISH        CLOUDY    45  43  93 CALM      30.05S
CROOKSTON      SUNNY     48  43  81 NE5       30.09R
$$
  *****  WEATHER ACROSS CENTRAL AND WEST MINNESOTA  *****

CITY           SKY/WX    TMP DP  RH WIND       PRES   REMARKS
BEMIDJI        PTSUNNY   47  40  76 N9        30.05R
PARK RAPIDS    SUNNY     51  41  68 N13       30.03S
WADENA         SUNNY     52  43  71 NW8       30.04R
DETROIT LAKES  SUNNY     50  41  71 NW9       30.07R
MOORHEAD       SUNNY     52  45  76 N5        30.08S
FERGUS FALLS   SUNNY     54  39  58 NW6       30.07S
ELBOW LAKE     FAIR      52  42  67 NW6       30.05F
MORRIS MN      SUNNY     55  45  67 NW9       30.05F
STAPLES        SUNNY     52  41  66 N10       30.03S
WHEATON        SUNNY     54  43  66 NW5       30.09S
$$
  *****  WEATHER ELSEWHERE ACROSS MINNESOTA  *****

CITY           SKY/WX    TMP DP  RH WIND       PRES   REMARKS
DULUTH         CLOUDY    47  41  80 N10       29.98R
INTRNTL FALLS  CLOUDY    45  36  70 N13       30.02R
ELY            CLOUDY    45  37  76 N6G20     29.97S
CLOQUET        CLOUDY    48  41  76 NW12      29.99R
BRAINERD       SUNNY     50  41  71 N13       30.03R
HIBBING        CLOUDY    48  37  65 N16       29.99R
ALEXANDRIA     SUNNY     55  43  63 N9        30.05S
SAINT CLOUD    SUNNY     58  43  57 NW9       30.02S
MINNEAPOLIS    SUNNY     57  42  57 NW12      30.00S
$$

  *****  WEATHER ACROSS SOUTH DAKOTA  *****

CITY           SKY/WX    TMP DP  RH WIND       PRES   REMARKS
SIOUX FALLS    MOSUNNY   61  44  53 N5        30.09F
BROOKINGS      NOT AVBL
WATERTOWN      SUNNY     55  42  61 W3        30.09S
HURON          SUNNY     56  38  50 W3        30.11S
SISSETON         N/A     56  41  57 N7        30.07S
ABERDEEN       SUNNY     55  39  54 VRB3      30.10S
MITCHELL         N/A     58  41  53 MISG      30.12S
PIERRE         SUNNY     55  40  56 SE6       30.09S
MOBRIDGE       SUNNY     54  45  71 SE6       30.06F
RAPID CITY     SUNNY     56  43  61 SE10      30.04F
$$

  *****  SOME WEATHER IN NEARBY STATES *****

CITY           SKY/WX    TMP DP  RH WIND       PRES   REMARKS
GLASGOW MT     SUNNY     53  39  59 SE16      29.86F
GREAT FALLS MT SUNNY     62  29  28 S17       29.86S
CHEYENNE WY    SUNNY     60  38  43 SW6       30.18S
SCOTTSBLUFF NE SUNNY     55  41  59 SE7       30.12S
OMAHA NE       SUNNY     59  45  59 N7        30.10F
DES MOINES IA  SUNNY     61  46  57 NW6       30.05S
DAVENPORT IA   SUNNY     59  43  55 N16       29.95R
CHICAGO IL     MOSUNNY   58  46  64 NW12      29.85R
EAU CLAIRE WI  MOSUNNY   57  41  55 N13       29.96R
LA CROSSE WI   SUNNY     59  45  59 NW12      29.94F
$$

  *****  SOME NATIONAL WEATHER *****

CITY           SKY/WX    TMP DP  RH WIND       PRES   REMARKS
LA GUARDIA NY  PTSUNNY   52  30  43 SW9       30.10F
RALEIGH NC     MOSUNNY   65  43  44 SW14      30.14F
ATLANTA GA     MOSUNNY   66  51  58 SW8       30.12F
NEW ORLEANS LA MOSUNNY   74  54  49 NE10      30.07S
OKLAHOMA CITY  MOSUNNY   73  60  63 SW12      30.07S
ALBUQUERQUE NM PTSUNNY   57  42  57 NW7       30.20F
SALT LAKE CITY MOSUNNY   62  40  44 SE10      30.06R
LOS ANGELES CA CLOUDY    68  61  78 E5        29.94R
BOISE ID       SUNNY     56  33  42 SE5       29.89S
SEATTLE WA     CLOUDY    57  55  93 S8        29.75R
$$

*** WEATHER ACROSS MANITOBA...SASKATCHEWAN AND ONTARIO ***
                ***ONTARIO***

CITY           SKY/WX    TMP DP  RH WIND       PRES   REMARKS
GERALDTON      DRIZZLE   37  37 100 N6        29.89  FOG
THUNDER BAY    PTSUNNY   48  41  76 N6        29.92R
SIOUX LOOKOUT  PTSUNNY   39  34  81 N8G18     30.03
TORONTO        CLOUDY    50  45  81 SE7       29.84F
BIG TROUT LK   CLOUDY    32  30  93 N3        30.08R
PICKLE LAKE    DRIZZLE   34  32  93 N7        30.01R
DRYDEN         CLOUDY    43  36  75 NE7       30.02S
KENORA         CLOUDY    43  36  75 N7        30.06
$$
                *** MANITOBA***

CITY           SKY/WX    TMP DP  RH WIND       PRES   REMARKS
BRANDON        MOSUNNY   43  43 100 E8        30.04F FOG
DAUPHIN        CLOUDY    43  43 100 SE8       30.01F
ISLAND LAKE    PTSUNNY   37  34  87 SE2       30.11R
PILOT MOUND      N/A     50  45  81 SE7         N/A
THE PAS        PTSUNNY   45  39  81 SE17G26   29.97S
THOMPSON       DRIZZLE   32  32 100 SE3       30.08R FOG
WINNIPEG       CLOUDY    43  39  87 E5        30.10R
LYNN LAKE      CLOUDY    34  34 100 SE13G18   29.96F FOG     WCI  25
CHURCHILL      CLOUDY    36  34  93 N6        30.09S
GILLAM         CLOUDY    36  34  93 SW6       30.10R
$$
                ***SASKATCHEWAN***

CITY           SKY/WX    TMP DP  RH WIND       PRES   REMARKS
ESTEVAN        MOSUNNY   59  41  51 SE9       29.94S
KINDERSLEY     MOSUNNY   54  37  54 S9        29.71
LLOYDMINSTER   MOSUNNY   48  39  71 S13       29.60S
PRINCE ALBERT  MOSUNNY   48  41  76 E6        29.75F
REGINA         MOSUNNY   52  41  66 S10       29.85


USA.gov is the U.S. government's official web portal to all federal, state and local government web resources and services.